Location: Krakow
(50.0830°N, 19.9170°E)
Time: 19:54:52
(UTC+01:00)

Altair - Pass Details

Date: 07 December 2023
Orbit: 1501 x 1682 km, 47.2° (Epoch: 03 March)

Event Time Altitude Azimuth Distance (km) Brightness Sun altitude
Rises 13:29:45 0° 288° (WNW) 4,716 10.2 12.7°
Reaches altitude 10° 13:33:06 10° 280° (W) 3,709 9.8 12.5°
Maximum altitude 13:41:20 37° 218° (SW) 2,182 9.7 11.8°
Drops below altitude 10° 13:49:26 10° 155° (SSE) 3,644 10.0 11.2°
Sets 13:52:43 0° 147° (SSE) 4,625 10.4 10.9°
